Location: Caoma
(10.5237°N, 67.1352°W)
Time: 09:05:36
(UTC+00:00)

STARLINK-31533 - Pass Details

Date: 18 April 2024
Orbit: 443 x 445 km, 43.0° (Epoch: 18 May)

Event Time Altitude Azimuth Distance (km) Brightness Sun altitude
Rises 22:43:16 0° 326° (NW) 2,417 7.7 -1.7°
Reaches altitude 10° 22:45:31 10° 335° (NNW) 1,549 6.5 -2.2°
Maximum altitude 22:48:45 34° 43° (NE) 737 4.1 -3.0°
Drops below altitude 10° 22:52:00 10° 110° (ESE) 1,553 5.3 -3.8°
Enters shadow 22:53:15 - 116° (ESE) 2,026 5.9 -4.1°
